Regional Weather Roundup
Issued by NWS

Home | Current Version | Previous Version | Graphics & Text | Print | Product List | Glossary On
Versions: 1 2 3 4 5 6 7 8 9 10 11 12 13 14 15 16 17 18 19 20 21 22 23 24 25 26 27 28
000
ASUS45 KBOU 220007
RWRCO

WEATHER ROUNDUP FOR COLORADO
NATIONAL WEATHER SERVICE DENVER/BOULDER CO
500 PM MST SAT JAN 21 2017

NOTE: "FAIR" INDICATES FEW OR NO CLOUDS BELOW 12000 FEET WITH NO
SIGNIFICANT WEATHER AND/OR OBSTRUCTIONS TO VISIBILITY.

COZ001>005-013-030-031-220100-
...NORTHWEST COLORADO...

CITY           SKY/WX    TMP DP  RH WIND       PRES   REMARKS
CRAIG          LGT SNOW  28  25  88 SW10      29.58R VSB 3/4 WCI  19
HAYDEN         MOCLDY    27  21  80 W6        29.55R WCI  20
MEEKER         LGT SNOW  30  26  85 W12       29.57R FOG     WCI  20
MOUNT WERNER   NOT AVBL
STEAMBOAT SPGS CLOUDY    27  25  89 CALM      29.54R VSB 1
WALDEN           N/A     18  12  79 CALM      29.52R
$$

COZ006>008-011-220100-
...WEST CENTRAL VALLEYS...

CITY           SKY/WX    TMP DP  RH WIND       PRES   REMARKS
GRAND JUNCTION CLOUDY    35  34  96 N12       29.60R WCI  27
MONTROSE       FLURRIES  33  31  92 E3        29.60R
EAGLE          LGT SNOW  28  27  93 CALM      29.55R VSB 3/4
RIFLE          FLURRIES  34  32  92 W10       29.56R WCI  26
DELTA          CLOUDY    40  32  74 SW12      29.58R
NUCLA          LGT SNOW  32  32 100 W7        29.65R WCI  26
$$

COZ017>023-064>068-220100-
...SOUTHWEST COLORADO...

CITY           SKY/WX    TMP DP  RH WIND       PRES   REMARKS
DURANGO        FAIR      30  24  78 W24       29.55R WCI  16
CORTEZ         LGT SNOW  33  31  92 W10       29.63R FOG     WCI  25
PAGOSA SPRINGS CLOUDY    28  26  91 SW9       29.54R WCI  20
TELLURIDE      NOT AVBL
WOLF CREEK PAS CLOUDY    12  12 100 SW10G21   29.54R WCI  -1
$$

COZ009-010-012-014-032>034-037-058>063-220100-
...CENTRAL COLORADO...

CITY           SKY/WX    TMP DP  RH WIND       PRES   REMARKS
ASPEN          LGT SNOW  27  23  85 CALM      29.51R FOG
BUENA VISTA    CLOUDY    27  19  74 CALM      29.46R
COPPER MTN     LGT SNOW  19  14  79 MISG      29.48R VSB 1
BERTHOUD PASS  NOT AVBL
COTTONWOOD PAS LGT SNOW  27  23  86 NW3       29.46R VSB 3/4
GUNNISON       FLURRIES  21  17  84 N6        29.54R WCI  13
KREMMLING      LGT SNOW  23  18  80 CALM      29.54R
LEADVILLE      LGT SNOW  21  15  78 W8        29.46R WCI  11
MONARCH PASS   CLOUDY    14  10  85 NW5       29.57R WCI   6
SALIDA         CLOUDY    32  29  90 CALM      29.53R
SUNLIGHT       CLOUDY    18  16  93 MISG      29.55R
WILKERSON PASS CLOUDY    19  12  73 N6        29.48R WCI  11
$$

COZ069>075-220100-
...SAN LUIS VALLEY/SANGRE DE CRISTO MOUNTAINS...

CITY           SKY/WX    TMP DP  RH WIND       PRES   REMARKS
ALAMOSA        LGT SNOW  27  24  89 NW8       29.48R VSB 1   WCI  19
LA VETA PASS   FLURRIES  21  16  79 NE13G23   29.43R WCI   9
SAGUACHE       MOCLDY    27  21  80 N5        29.48R WCI  21
$$

COZ035-036-038>040-220100-
...NORTHERN COLORADO FRONT RANGE...

CITY           SKY/WX    TMP DP  RH WIND       PRES   REMARKS
DENVER INTL AP MOCLDY    36  25  64 N5        29.46R
DMNS CITY PARK   N/A     37  24  59 NE2       29.48R
AURORA         MOCLDY    34  26  72 N5        29.46R WCI  30
FRONT RANGE AP MOCLDY    37  30  75 NW5       29.46
ERIE MUNI ARPT FAIR      36  26  68 N5        29.47R
BOULDER MUN AP FAIR      37  27  65 CALM      29.47R
CENTENNIAL     MOCLDY    34  21  59 NW7       29.46R WCI  28
BROOMFIELD     MOCLDY    39  27  60 N6        29.46R
FORT COLLINS   FAIR      37  27  65 NE5       29.48R
LONGMONT       FAIR      39  26  60 NE3       29.49R
$$

COZ041-046-047-076>085-087-088-220100-
...PIKES PEAK/PALMER DIVIDE AND SOUTHERN FOOTHILLS...

CITY           SKY/WX    TMP DP  RH WIND       PRES   REMARKS
COLO. SPRINGS  MOCLDY    35  24  64 E7        29.45R WCI  29
A. F. ACADEMY  CLOUDY    35  18  50 N9        29.44R WCI  27
SCHRIEVER AFB  NOT AVBL
ELLICOTT       FAIR     N/A N/A N/A E7        29.43R
FALCON         FAIR      32  22  68 N3        29.46R
FORT CARSON    NOT AVBL
LIMON          FAIR      34  27  75 E7        29.44R WCI  28
MONUMENT HILL  MOCLDY    30  23  74 N5        29.46R WCI  25
TRINIDAD       FAIR      34  26  72 CALM      29.41R
$$

COZ042>045-048>051-090-091-220100-
...NORTHEAST COLORADO...

CITY           SKY/WX    TMP DP  RH WIND       PRES   REMARKS
GREELEY ARPT   NOT AVBL
AKRON          FAIR      35  24  64 E7        29.46R WCI  29
BURLINGTON     FAIR      37  32  82 NE8       29.44R
WRAY           NOT AVBL
STERLING       FAIR      41  27  56 E3        29.47R
HOLYOKE        FAIR      37  30  75 NE6       29.48R
FORT MORGAN    FAIR      36  24  64 E6        29.48R
$$

COZ086-089-092>099-220100-
...SOUTHEAST COLORADO...

CITY           SKY/WX    TMP DP  RH WIND       PRES   REMARKS
PUEBLO         MOCLDY    40  31  70 W5        29.42R
LA JUNTA       CLOUDY    33  31  92 SW8       29.41R WCI  26
LAMAR          FAIR      34  30  85 W9        29.39R WCI  27
SPRINGFIELD      N/A     33  28  81 NW14      29.36R WCI  23
$$




USA.gov is the U.S. government's official web portal to all federal, state and local government web resources and services.